Search for airport 
image banner adimage banner adimage banner ad
image banner ad

NV67 - Pilot Creek Ranches

Located in Montello, United States

ICAO - NV67, IATA -

Data provided by Airmate  

General information

Coordinates: N41°6'57" W114°6'49"
Elevation is 4980 feet MSL.
Magnetic variation is 15° East
View others Airports in Nevada

Operational data

Special qualification required
Current time UTC:
Current local time:
Weather at : KENV - Wendover ( 45 km )
METAR: KENV 270456Z AUTO 19018KT 10SM CLR 28/11 A3006 RMK AO2 PK WND 16031/0408 SLP127 T02830111
TAF: KENV 262322Z 2700/2724 12010KT P6SM SCT250 FM270500 21010KT P6SM SCT250 FM272000 14007KT P6SM BKN250
View NOTAMs / SUP AIP / TFR affecting this airport [VIEW]
Communications frequencies: [VIEW]

Runways:

RWY identifierQFULength (ft)Width (ft)SurfaceLDA (ft)
07200025EARTH
25200025EARTH

Airport contact information

Address: Montello United States

Satellite view of NV67